FW8282 Weather Reports


Display with metric or nautical units.
time (UTC)temp
F
wind
direction
speed
MPH
gust
MPH
rain 1hr
in
rain 24hr
in
rain mn
in
humidity
%
barometer
mb
20260502230006 70 205 0.0 0.0 0.00 0.36 0.36 99 1010.0
20260502225500 70 195 0.0 0.0 0.00 0.36 0.36 99 1009.9
20260502224958 70 182 0.0 0.0 0.00 0.36 0.36 99 1009.9
20260502224454 70 165 0.0 0.0 0.00 0.36 0.36 99 1009.9
20260502223951 70 169 0.0 0.0 0.00 0.36 0.36 99 1010.0
20260502223449 70 185 0.0 0.0 0.00 0.36 0.36 99 1009.8
20260502222947 70 159 0.0 0.0 0.00 0.36 0.36 99 1009.7
20260502222444 70 119 0.0 0.0 0.00 0.36 0.36 99 1009.4
20260502221939 70 169 0.0 0.0 0.00 0.36 0.36 99 1009.7
20260502221436 70 217 0.0 0.0 0.00 0.36 0.36 99 1010.0
20260502220933 70 161 0.0 0.0 0.05 0.36 0.36 99 1009.7
20260502220429 70 229 0.0 0.0 0.05 0.36 0.36 99 1009.9
20260502215926 70 169 0.0 0.0 0.00 0.35 0.35 99 1009.7
20260502215423 69 190 0.0 0.0 0.00 0.35 0.35 99 1009.3
20260502214920 70 232 0.0 0.0 0.00 0.35 0.35 99 1009.3
20260502214416 69 191 0.0 0.0 0.00 0.35 0.35 99 1009.5
20260502213914 69 306 3.0 5.0 0.00 0.35 0.35 99 1010.0
20260502213410 69 285 2.0 3.0 0.00 0.35 0.35 99 1009.4
20260502212909 69 210 0.0 0.0 0.00 0.35 0.35 99 1009.0
20260502212408 69 169 0.0 0.0 0.00 0.35 0.35 99 1008.7
20260502211905 69 175 0.0 0.0 0.00 0.35 0.35 98 1009.0
20260502211400 69 169 0.0 0.0 0.07 0.35 0.35 98 1008.7
20260502210858 69 168 0.0 0.0 0.07 0.35 0.35 98 1008.8
20260502210355 69 148 0.0 0.0 0.00 0.34 0.34 98 1009.2
20260502205852 69 161 0.0 0.0 0.00 0.34 0.34 98 1009.4
20260502205347 69 165 0.0 0.0 0.05 0.34 0.34 97 1009.4
20260502204845 69 162 0.0 0.0 0.12 0.34 0.34 97 1009.3
20260502204342 69 165 0.0 0.0 0.12 0.34 0.34 97 1009.5
20260502203839 69 149 0.0 0.0 0.07 0.33 0.33 97 1009.2
20260502203337 69 165 0.0 0.0 0.00 0.32 0.32 97 1009.6
20260502202832 69 165 0.0 0.0 0.00 0.32 0.32 97 1009.9
20260502202330 69 175 0.0 0.0 0.00 0.32 0.32 97 1010.2
20260502201828 69 197 0.0 0.0 0.00 0.32 0.32 97 1010.0
20260502201323 69 212 0.0 0.0 0.00 0.32 0.32 97 1009.9
20260502200820 69 178 0.0 0.0 0.00 0.32 0.32 96 1009.6
20260502200316 69 199 0.0 0.0 0.00 0.32 0.32 96 1009.6
20260502195814 69 153 0.0 0.0 0.00 0.32 0.32 96 1009.5
20260502195310 69 166 0.0 0.0 0.07 0.32 0.32 96 1010.0
20260502194807 69 199 0.0 0.0 0.07 0.32 0.32 96 1009.6
20260502194304 68 176 0.0 0.0 0.05 0.31 0.31 96 1009.5
20260502193800 69 166 0.0 0.0 0.40 0.31 0.31 95 1009.9
20260502193257 69 230 0.0 0.0 0.42 0.30 0.30 95 1010.6
20260502192758 69 277 1.0 2.0 0.50 0.24 0.24 95 1011.3
20260502192255 69 264 0.0 1.0 1.09 0.23 0.23 94 1011.3
20260502191752 69 221 3.0 5.0 1.02 0.18 0.18 93 1011.1
20260502191250 71 263 11.0 16.0 0.28 0.05 0.05 91 1011.6
20260502190747 73 279 7.0 9.0 0.05 0.01 0.01 87 1011.3
20260502190245 75 276 8.0 11.0 0.00 0.00 0.00 81 1011.3
20260502185744 78 254 11.0 15.0 0.00 0.00 0.00 77 1010.8
20260502185241 81 242 3.0 8.0 0.00 0.00 0.00 84 1010.3
20260502184738 81 247 1.0 3.0 0.00 0.00 0.00 83 1010.4
20260502184233 81 238 0.0 0.0 0.00 0.00 0.00 83 1010.2
20260502183730 82 190 0.0 0.0 0.00 0.00 0.00 83 1009.9
20260502183226 82 252 0.0 0.0 0.00 0.00 0.00 82 1010.1
20260502182722 82 258 0.0 0.0 0.00 0.00 0.00 82 1009.9
20260502182217 82 290 3.0 5.0 0.00 0.00 0.00 81 1010.3
20260502181715 82 259 5.0 7.0 0.00 0.00 0.00 81 1010.2
20260502181214 83 273 5.0 7.0 0.00 0.00 0.00 81 1010.3
20260502180710 83 283 2.0 5.0 0.00 0.00 0.00 79 1010.0
20260502180208 83 268 2.0 3.0 0.00 0.00 0.00 78 1010.1
20260502170132 84 234 4.0 6.0 0.00 0.00 0.00 77 1010.2
20260502164119 84 255 7.0 8.0 0.00 0.00 0.00 76 1010.0
20260502163615 84 248 4.0 9.0 0.00 0.00 0.00 76 1009.7
20260502163111 85 248 4.0 5.0 0.00 0.00 0.00 76 1010.1
20260502162608 85 291 6.0 9.0 0.00 0.00 0.00 75 1010.3
20260502162105 85 249 6.0 9.0 0.00 0.00 0.00 74 1010.2
20260502161602 85 216 7.0 11.0 0.00 0.00 0.00 74 1010.1
20260502161059 87 266 10.0 15.0 0.00 0.00 0.00 74 1010.1
20260502160557 86 259 1.0 3.0 0.00 0.00 0.00 74 1010.1
20260502152010 84 259 3.0 5.0 0.00 0.00 0.00 74 1010.5
20260502151507 84 262 2.0 6.0 0.00 0.00 0.00 74 1010.5
20260502151004 84 226 1.0 3.0 0.00 0.00 0.00 75 1010.2
20260502150502 84 254 4.0 8.0 0.00 0.00 0.00 75 1010.2
20260502130347 75 231 0.0 0.0 0.00 0.00 0.00 89 1009.7
20260502123330 72 212 0.0 0.0 0.00 0.00 0.00 97 1009.4
20260502122827 72 198 0.0 0.0 0.00 0.00 0.00 98 1009.2
20260502122322 72 224 0.0 0.0 0.00 0.00 0.00 98 1009.2
20260502121821 72 213 0.0 0.0 0.00 0.00 0.00 98 1009.2
20260502121318 71 146 0.0 0.0 0.00 0.00 0.00 98 1009.0
20260502120815 71 166 0.0 0.0 0.00 0.00 0.00 98 1008.9
20260502120311 71 174 0.0 0.0 0.00 0.00 0.00 98 1008.8
20260502115809 70 165 0.0 0.0 0.00 0.00 0.00 98 1008.9
20260502115306 70 164 0.0 0.0 0.00 0.00 0.00 98 1008.9
20260502114802 70 154 0.0 0.0 0.00 0.00 0.00 98 1008.6
20260502114259 69 166 0.0 0.0 0.00 0.00 0.00 98 1008.8
20260502113756 69 170 0.0 0.0 0.00 0.00 0.00 98 1008.8
20260502113254 69 167 0.0 0.0 0.00 0.00 0.00 98 1008.6
20260502112752 69 165 0.0 0.0 0.00 0.00 0.00 98 1008.9
20260502112249 69 160 0.0 0.0 0.00 0.00 0.00 98 1008.8
20260502111746 69 169 0.0 0.0 0.00 0.00 0.00 98 1008.9
20260502111244 68 176 0.0 0.0 0.00 0.00 0.00 98 1008.7
20260502110741 68 172 0.0 0.0 0.00 0.00 0.00 98 1008.7
20260502110239 68 170 0.0 0.0 0.00 0.00 0.00 98 1008.7
20260502105737 68 170 0.0 0.0 0.00 0.00 0.00 98 1008.8
20260502105232 68 169 0.0 0.0 0.00 0.00 0.00 98 1008.5
20260502104730 68 169 0.0 0.0 0.00 0.00 0.00 98 1008.6
20260502104228 68 169 0.0 0.0 0.00 0.00 0.00 98 1008.5
20260502103725 68 169 0.0 0.0 0.00 0.00 0.00 98 1008.6
20260502103223 68 169 0.0 0.0 0.00 0.00 0.00 98 1008.6
20260502102719 68 169 0.0 0.0 0.00 0.00 0.00 98 1008.5
20260502102216 68 169 0.0 0.0 0.00 0.00 0.00 98 1008.6
20260502101714 68 169 0.0 0.0 0.00 0.00 0.00 98 1008.5
20260502101212 68 161 0.0 0.0 0.00 0.00 0.00 98 1008.5
20260502100710 68 169 0.0 0.0 0.00 0.00 0.00 98 1008.8
20260502100208 68 169 0.0 0.0 0.00 0.00 0.00 98 1008.6
20260502091142 68 169 0.0 0.0 0.00 0.00 0.00 97 1008.8
20260502090639 68 169 0.0 0.0 0.00 0.00 0.00 98 1008.9
20260502090136 68 161 0.0 0.0 0.00 0.00 0.00 97 1008.9
20260502071534 68 161 0.0 0.0 0.00 0.00 0.00 97 1009.6
20260502071032 68 162 0.0 0.0 0.00 0.00 0.00 97 1009.5
20260502070530 68 164 0.0 0.0 0.00 0.00 0.00 97 1009.3
20260502070027 68 161 0.0 0.0 0.00 0.00 0.00 97 1009.7
20260502065526 68 161 0.0 0.0 0.00 0.00 0.00 97 1009.5
20260502065023 69 148 0.0 0.0 0.00 0.00 0.00 97 1009.6
20260502064521 68 162 0.0 0.0 0.00 0.00 0.00 96 1009.8
20260502064018 69 161 0.0 0.0 0.00 0.00 0.00 97 1009.7
20260502063516 69 162 0.0 0.0 0.00 0.00 0.00 97 1009.5
20260502063014 69 165 0.0 0.0 0.00 0.00 0.00 97 1010.0
20260502062510 69 162 0.0 0.0 0.00 0.00 0.00 96 1009.9
20260502062009 68 163 0.0 0.0 0.00 0.00 0.00 96 1009.9
20260502061506 68 162 0.0 0.0 0.00 0.00 0.00 96 1010.0
20260502061003 68 152 0.0 0.0 0.00 0.00 0.00 96 1010.1
20260502060458 68 144 0.0 0.0 0.00 0.00 0.00 96 1010.3
20260502055955 69 149 0.0 0.0 0.00 0.00 0.00 96 1010.1
20260502055452 69 151 0.0 0.0 0.00 0.00 0.00 96 1010.1
20260502054952 69 141 0.0 0.0 0.00 0.00 0.00 96 1010.2
20260502054450 69 151 0.0 0.0 0.00 0.00 0.00 96 1010.2
20260502053947 69 151 0.0 0.0 0.00 0.00 0.00 96 1010.3
20260502053444 69 152 0.0 0.0 0.00 0.00 0.00 96 1010.5
20260502052942 69 150 0.0 0.0 0.00 0.00 0.00 96 1010.3
20260502052439 69 148 0.0 0.0 0.00 0.00 0.00 96 1010.4
20260502051938 69 162 0.0 0.0 0.00 0.00 0.00 96 1010.4
20260502051435 69 151 0.0 0.0 0.00 0.00 0.00 95 1010.4
20260502050932 69 151 0.0 0.0 0.00 0.00 0.00 95 1010.8
20260502050429 70 151 0.0 0.0 0.00 0.00 0.00 95 1010.5
20260502045926 70 139 0.0 0.0 0.00 0.00 0.00 95 1010.3
20260502045423 70 151 0.0 0.0 0.00 0.00 0.00 95 1010.4
20260502044920 70 145 0.0 0.0 0.00 0.00 0.00 95 1010.5
20260502044415 70 150 0.0 0.0 0.00 0.00 0.00 95 1010.5
20260502043912 71 150 0.0 0.0 0.00 0.00 0.00 95 1010.6
20260502043410 71 149 0.0 0.0 0.00 0.00 0.00 95 1010.6
20260502042909 71 147 0.0 0.0 0.00 0.00 0.00 95 1010.5
20260502042409 70 149 0.0 0.0 0.00 0.00 0.00 95 1010.4
20260502041904 71 144 0.0 0.0 0.00 0.00 0.00 95 1010.5
20260502041402 71 145 0.0 0.0 0.00 0.00 0.00 95 1010.5
20260502040859 71 149 0.0 0.0 0.00 0.00 0.00 95 1010.3
20260502040355 71 138 0.0 0.0 0.00 0.00 0.00 94 1010.4
20260502035851 71 141 0.0 0.0 0.00 0.00 0.00 94 1010.4
20260502035348 71 142 0.0 0.0 0.00 0.00 0.00 94 1010.4
20260502034845 71 156 0.0 0.0 0.00 0.00 0.00 94 1010.3
20260502034344 71 157 0.0 0.0 0.00 0.00 0.00 94 1010.4
20260502033842 72 159 0.0 0.0 0.00 0.00 0.00 94 1010.4
20260502033339 72 159 0.0 0.0 0.00 0.00 0.00 94 1010.5
20260502032836 72 149 0.0 0.0 0.00 0.00 0.00 94 1010.7
20260502032332 71 156 0.0 0.0 0.00 0.00 0.00 94 1010.6
20260502031830 72 150 0.0 0.0 0.00 0.00 0.00 93 1010.2
20260502031328 72 154 0.0 0.0 0.00 0.00 0.00 93 1010.4
20260502030826 71 155 0.0 0.0 0.00 0.00 0.00 93 1010.5
20260502030324 72 156 0.0 0.0 0.00 0.00 0.00 93 1010.5
20260502025821 72 149 0.0 0.0 0.00 0.00 0.00 92 1010.4
20260502025319 73 150 0.0 0.0 0.00 0.00 0.00 92 1010.6
20260502024816 73 147 0.0 0.0 0.00 0.00 0.00 92 1010.4
20260502024314 73 150 0.0 0.0 0.00 0.00 0.00 92 1010.4
20260502023812 73 147 0.0 0.0 0.00 0.00 0.00 91 1010.2
20260502023309 73 156 0.0 0.0 0.00 0.00 0.00 91 1010.3
20260502022807 74 155 0.0 0.0 0.00 0.00 0.00 91 1010.1
20260502022306 74 111 0.0 0.0 0.00 0.00 0.00 91 1010.1
20260502021800 74 201 0.0 0.0 0.00 0.00 0.00 91 1010.2
20260502021257 75 134 0.0 0.0 0.00 0.00 0.00 90 1010.2
20260502020754 75 174 0.0 0.0 0.00 0.00 0.00 90 1010.1
20260502020252 75 168 0.0 0.0 0.00 0.00 0.00 90 1010.2
20260502015749 75 202 0.0 0.0 0.00 0.00 0.00 89 1010.2
20260502015245 75 163 0.0 0.0 0.00 0.00 0.00 89 1010.0
20260502014743 75 148 0.0 0.0 0.00 0.00 0.00 89 1010.3
20260502014240 76 313 0.0 0.0 0.00 0.00 0.00 88 1010.3
20260502013736 76 161 0.0 0.0 0.00 0.00 0.00 88 1010.3
20260502013231 76 188 0.0 0.0 0.00 0.00 0.00 88 1010.4
20260502012729 76 247 0.0 0.0 0.00 0.00 0.00 87 1010.2
20260502012226 76 172 0.0 0.0 0.00 0.00 0.00 87 1010.1
20260502011724 76 224 0.0 0.0 0.00 0.00 0.00 87 1010.2
20260502011219 77 316 0.0 0.0 0.00 0.00 0.00 86 1010.3
20260502010717 77 242 0.0 0.0 0.00 0.00 0.00 86 1010.2
20260502010213 77 280 0.0 0.0 0.00 0.00 0.00 85 1010.1
20260502005710 77 255 0.0 0.0 0.00 0.00 0.00 85 1010.3
20260502005208 77 271 0.0 0.0 0.00 0.00 0.00 84 1010.1
20260502004704 77 226 1.0 3.0 0.00 0.00 0.00 83 1010.1
20260502004201 78 174 0.0 0.0 0.00 0.00 0.00 83 1010.1
20260502003659 78 10 0.0 0.0 0.00 0.00 0.00 82 1010.1
20260502003155 78 200 0.0 0.0 0.00 0.00 0.00 82 1009.8
20260502002651 78 251 0.0 0.0 0.00 0.00 0.00 81 1009.8
20260502002150 79 353 0.0 0.0 0.00 0.00 0.00 80 1009.7
20260502001646 79 335 0.0 0.0 0.00 0.00 0.00 80 1009.7
20260502001144 79 276 1.0 2.0 0.00 0.00 0.00 79 1009.7
20260502000642 80 273 1.0 3.0 0.00 0.00 0.00 78 1009.7
20260502000139 80 282 1.0 1.0 0.00 0.00 0.00 76 1009.6
20260501235635 80 321 0.0 1.0 0.00 0.00 0.00 74 1009.5
20260501235131 81 233 0.0 0.0 0.00 0.00 0.00 71 1009.4
20260501234626 81 250 2.0 3.0 0.00 0.00 0.00 68 1009.5
20260501234124 81 245 0.0 0.0 0.00 0.00 0.00 67 1009.2
20260501233622 82 268 0.0 0.0 0.00 0.00 0.00 66 1009.3
20260501233119 82 278 0.0 0.0 0.00 0.00 0.00 66 1009.4
20260501232615 82 334 1.0 3.0 0.00 0.00 0.00 65 1009.2
20260501232113 82 327 3.0 3.0 0.00 0.00 0.00 66 1009.0
20260501231610 83 332 0.0 1.0 0.00 0.00 0.00 64 1009.2
20260501231108 84 276 5.0 6.0 0.00 0.00 0.00 63 1009.0
20260501230606 84 263 4.0 6.0 0.00 0.00 0.00 63 1009.0